Weather in Novouralskiy

Russia / Omsk Oblast     54°21′35″N   74°07′36″E
temp.,
°C
wind,
m/s
gust,
m/s
humid.,
%
clouds,
%
prec.,
mm/h
press.,
hPa
HPBL,
m
15 april, thu
thu1500:00+1w359695 0.0 102965
03:00+2w3499100 0.1 102857
06:00+3wsw35100100 0.3 102871
09:00+4wsw3710063 0.1 1027152
12:00+9w59901 0.1 1026306
15:00+13w58805 0.0 1024534
18:00+13w47825 0.0 1023191
21:00+9w45885 0.0 102364
16 april, fri
fri1600:00+8w45875 0.0 102166
03:00+7wsw47875 0.0 102084
06:00+6wsw4108754 0.0 1019145
09:00+9wsw5127488 0.0 1018344
12:00+14w68544 0.0 1018586
15:00+16nw67555 0.0 10171219
18:00+7nne81281100 0.0 1020583
21:00+5ne61181100 0.1 1023732
17 april, sat
sat1700:00+5ne587691 0.1 1023825
03:00+2ne6107687 0.0 1023487
06:000ene48845 0.0 1024324
09:00+2e337115 0.0 1023456
12:00+5nnw225629 0.0 1022856
15:00+7nw45465 0.0 10211380
18:00+8nw564359 0.0 10201757
21:00+6wsw33595 0.0 102038
18 april, sun
sun1800:00+4wsw356770 0.0 101976
03:00+3sw3571100 0.0 101882
06:00+2ssw4974100 0.0 1016170
09:00+6ssw61167100 0.0 1014375
12:00+9sw71063100 0.2 10111308
15:00+7w61087100 1.9 1008894
18:00+7wnw71074100 2.4 10071089
21:00+3nw91160100 0.1 1009899
19 april, mon
mon1900:00−4nw9146897 0.1 1011890
03:00−5nnw91264100 0.0 10131104
06:00−6nnw91363100 0.0 10141021
09:00−6nnw91151100 0.0 10171073
12:00−3nnw8103812 0.0 10191407
15:00−1nnw8935100 0.0 10201970
18:00−2nnw8937100 0.0 10211962
21:00−4n6957100 0.1 10241041